TIME,DELAY(SENSOR),PRES,T(CTD),SAL,OXYGEN,RAWTEMP,T(OPTODE),TCPHASE,FLUOR,BETA(BETA700),BETA(BETA412),BETA(BETA440),CDOM,C(CSC),ED(ED412.40),ED(ED444.00),ED(ED489.70),ED(ED554.30),LU(LU411.80),LU(LU443.40),LU(LU489.60),LU(LU554.10),COMP,TILTX,TILTX(TILTY),CHECK
1336684804,5807,497.4400024414062500,6.7702999114990230,34.1683006286621100,80.6266174316406200,594.8496093750000000,6.7505168914794920,48.7589302062988300,52,114,92,81,81,15257,2147754422,2147421686,2148000594,2147874514,2147630537,2147079533,2148243666,2147205357,2187,4,13,53842
1336684933,5805,486.0100097656250000,6.8512997627258300,34.1632003784179700,84.2859268188476600,592.2106933593750000,6.8356018066406250,48.2992210388183600,53,111,91,80,80,15260,2147748562,2147422656,2148001618,2147870793,2147628242,2147074980,2148244397,2147204836,2811,4,13,6787
1336685060,5805,475.8599853515625000,7.1085000038146970,34.1515998840332000,87.8324203491211000,584.5117797851562000,7.0834622383117680,47.7769508361816400,52,107,88,81,81,15263,2147748022,2147421632,2148001426,2147870427,2147632301,2147082011,2148243629,2147205549,2505,4,13,31467
1336685213,5811,465.1000061035156000,7.2926998138427730,34.1497001647949200,91.2357711791992200,578.3499145507812000,7.2814521789550780,47.3031311035156250,52,110,92,80,81,15264,2147746313,2147420598,2148001819,2147874742,2147628196,2147079094,2148242322,2147204800,2536,4,13,41975
1336685388,5806,454.2999877929687500,7.5490999221801760,34.1348991394043000,105.4476013183593800,570.4520874023438000,7.5347180366516110,45.6599311828613300,51,110,91,82,79,15265,2147746688,2147425398,2148001627,2147874806,2147628553,2147084982,2148241417,2147206189,2031,4,13,15473
1336685566,5803,442.1700134277344000,7.7732000350952150,34.1290016174316400,114.7312011718750000,562.7503051757812000,7.7811741828918460,44.6038818359375000,51,108,93,80,79,15264,2147743012,2147423634,2148001142,2147873426,2147622637,2147090496,2148241453,2147204909,648,4,13,40946
1336685705,5808,431.3599853515625000,8.0253000259399410,34.1254997253418000,125.6922988891601600,555.6289062500000000,8.0086021423339840,43.4411506652832000,50,109,89,80,78,15265,2147744932,2147420096,2147999817,2147873892,2147624000,2147088649,2148238674,2147209188,2810,4,13,46506
1336685840,5812,420.1199951171875000,8.2070999145507810,34.1213989257812500,135.2727966308593800,548.9168701171875000,8.2225713729858400,42.4643211364746100,50,109,90,80,77,15262,2147743798,2147422674,2147998518,2147873206,2147623926,2147087460,2148241005,2147207405,2683,4,13,52040
1336685955,5811,409.1700134277344000,8.3915004730224610,34.1190986633300800,140.6775054931640600,543.1433715820312000,8.4063186645507810,41.8982887268066400,50,108,88,80,77,15262,2147742774,2147422445,2147997997,2147871570,2147620032,2147090532,2148233554,2147208731,3447,4,13,34814
1336686070,5808,398.1300048828125000,8.7168998718261720,34.1166992187500000,152.2425994873047000,534.0272216796875000,8.6959114074707030,40.7817497253418000,50,108,93,81,76,15263,2147742354,2147422125,2147998601,2147874788,2147621312,2147091145,2148232841,2147207945,1271,4,13,35169
1336686187,5806,386.3299865722656000,8.8415002822875980,34.1200981140136700,156.0397949218750000,529.4821777343750000,8.8400478363037110,40.4020614624023440,50,108,91,81,75,15264,2147743853,2147421275,2147997074,2147875337,2147618112,2147093266,2148233728,2147207542,2356,4,13,35218
1336686302,5811,374.4200134277344000,9.2005996704101560,34.1296997070312500,161.6013946533203000,517.8989257812500000,9.2066745758056640,39.7722282409668000,50,110,91,81,76,15259,2147740745,2147420635,2147998747,2147874724,2147618505,2147095177,2148233627,2147209435,3095,3,13,36737
1336686405,5808,363.7000122070312500,9.4224004745483400,34.1297988891601560,166.8607025146484400,511.5625000000000000,9.4068059921264650,39.2668113708496100,50,109,90,82,75,15262,2147738633,2147422317,2147999744,2147874166,2147616164,2147094244,2148232109,2147206930,463,4,13,6207
1336686523,5808,352.7500000000000000,9.7691001892089840,34.1395988464355500,174.1040039062500000,500.4121093750000000,9.7582807540893550,38.5493392944335940,50,109,94,81,74,15261,2147740754,2147420443,2148002166,2147871067,2147614509,2147095506,2148227062,2147206098,1054,4,13,41360
1336686662,5806,341.5700073242187500,9.9688997268676760,34.1439018249511700,178.1490936279297000,494.2745971679687500,9.9513702392578120,38.1605300903320300,49,111,92,81,75,15259,2147739821,2147423881,2148002770,2147876489,2147614564,2147098020,2148229961,2147209920,1997,4,14,49794
1336686803,5807,330.7699890136719000,10.3017997741699220,34.1553993225097660,183.0841064453125000,483.4205017089844000,10.2922201156616210,37.6381797790527340,50,111,89,83,74,15261,2147738624,2147422116,2148008868,2147871890,2147613321,2147104009,2148227702,2147211547,2686,3,14,37623
1336686966,5808,320.3399963378906000,10.6961002349853520,34.1669998168945300,188.9367980957031200,470.9151000976562500,10.6839799880981450,37.0388984680175800,49,111,92,82,73,15261,2147735497,2147422902,2148011602,2147872795,2147610102,2147103908,2148230756,2147210797,1362,3,13,4035
1336687132,5807,308.5700073242187500,11.1837997436523440,34.1870994567871100,193.8589019775390600,454.8275146484375000,11.1865396499633790,36.4557304382324200,50,110,90,80,71,15260,2147735460,2147424621,2148017993,2147872960,2147609005,2147109184,2148229924,2147212169,1303,4,13,40430
1336687259,5809,297.0199890136719000,11.9040002822875980,34.2151985168457000,197.9470062255859400,430.6801147460937500,11.9380903244018550,35.8068504333496100,48,109,93,80,71,15261,2147731803,2147429979,2148032082,2147873819,2147604836,2147118016,2148236397,2147212736,1262,4,14,15201
1336687388,5811,286.8299865722656000,12.5145998001098630,34.2545013427734400,202.2984924316406200,411.2708129882812500,12.5399703979492190,35.2319107055664060,49,112,92,81,70,15261,2147735140,2147437010,2148043355,2147877129,2147605174,2147126089,2148236818,2147213924,1384,4,14,16291
1336687563,5807,276.4599914550781000,13.8418998718261720,34.2994003295898440,200.7581939697265600,369.3812866210937500,13.8332004547119140,34.6728706359863300,50,105,89,81,70,15262,2147728941,2147441216,2148061220,2147871561,2147598445,2147140278,2148234733,2147213805,1304,3,15,63512
1336687756,5811,264.8800048828125000,14.5872001647949220,34.3325004577636700,187.0686950683593800,345.4190979003906000,14.5700101852417000,35.1644706726074200,49,108,89,81,71,15262,2147728128,2147456512,2148091968,2147874724,2147591835,2147148397,2148247652,2147217005,734,3,14,38571
1336687907,5811,253.6300048828125000,15.1936998367309570,34.4174995422363300,193.2420959472656200,323.6388854980469000,15.2382297515869140,34.4418182373046900,49,107,92,81,70,15260,2147723840,2147476324,2148138962,2147873124,2147590336,2147167497,2148262537,2147217398,14,3,14,32137
1336688053,5810,241.8800048828125000,16.2366008758544920,34.5354995727539060,199.3372955322265600,287.5094909667969000,16.3442897796630860,33.5358314514160160,50,108,90,82,69,15249,2147727113,2147507666,2148205558,2147873746,2147587209,2147190765,2148295021,2147224905,1081,2,14,53738
1336688180,5806,231.4199981689453000,17.5576992034912100,34.6831016540527340,201.9441070556640600,247.9192047119140600,17.5541000366210940,32.8132591247558600,53,109,89,80,68,15246,2147737636,2147556370,2148293979,2147874816,2147584256,2147227181,2148330368,2147228800,398,3,15,63689
1336688309,5807,220.2200012207031200,18.1723995208740230,34.7551994323730500,205.5301971435547000,227.9183044433593800,18.1649093627929700,32.3251800537109400,56,109,91,82,67,15242,2147756470,2147631369,2148434313,2147872804,2147589385,2147277293,2148391817,2147230610,1107,2,15,13901
1336688424,5809,209.5000000000000000,18.8356990814209000,34.8479995727539060,206.9886016845703000,206.8255004882812500,18.8090896606445300,31.9501800537109380,59,113,88,82,67,15235,2147797558,2147763638,2148642816,2147872640,2147602907,2147344539,2148487360,2147238345,1658,3,15,46482
1336688539,5812,198.4600067138672000,18.9871006011962900,34.8779983520507800,209.4022064208984400,201.0581970214843800,18.9852504730224600,31.7364997863769530,62,113,88,82,65,15234,2147872832,2147961426,2148957540,2147876736,2147629229,2147462546,2148635538,2147257435,2336,2,15,17065
1336688614,5806,192.0200042724609400,19.2810001373291000,34.9073982238769500,209.9304046630859400,190.9786987304687500,19.2932090759277340,31.5693397521972660,64,112,91,82,65,15232,2147948443,2148133979,2149207780,2147875044,2147658560,2147560356,2148753837,2147262070,2531,2,15,14717
1336688669,5808,188.0099945068359400,19.6193008422851560,34.9537010192871100,210.4898986816406200,180.0312957763672000,19.6277904510498050,31.3898792266845700,65,113,92,81,66,15231,2148019126,2148271094,2149403081,2147877074,2147684498,2147635437,2148844845,2147265682,2487,3,16,40848
1336688724,5808,184.1199951171875000,19.8784999847412100,34.9872016906738300,211.1658935546875000,172.2413940429687500,19.8659591674804700,31.2476596832275400,70,114,91,82,66,15230,2148092882,2148425142,2149605202,2147876864,2147714395,2147719506,2148946861,2147278162,2893,3,15,14279
1336688791,5808,179.4499969482422000,19.9531993865966800,34.9980010986328100,211.9053955078125000,169.3681030273437500,19.9538307189941400,31.1691303253173830,71,114,92,82,65,15223,2148225728,2148661421,2149933568,2147877878,2147765403,2147842578,2149088502,2147287881,2801,2,15,36464
1336688846,5809,175.3999938964843800,20.3715000152587900,35.0195999145507800,211.4199981689453000,156.6309967041015600,20.3435192108154300,31.0239906311035160,79,116,91,82,66,15219,2148366564,2148900260,2150248539,2147881334,2147821760,2147969709,2149231552,2147298413,2596,1,16,15703
1336688924,5809,171.0899963378906200,20.9817008972167970,35.1487998962402340,217.6723937988281200,136.8869018554687500,20.9482097625732420,30.4312705993652340,71,114,93,82,64,15221,2148506358,2149126180,2150569974,2147882624,2147891666,2148115739,2149400832,2147315017,2986,2,15,59154
1336689003,5807,168.0800018310547000,21.2101001739501950,35.1908988952636700,223.9196929931640600,129.1820983886718800,21.1844196319580080,30.0126590728759770,68,110,91,81,62,15225,2148584539,2149245970,2150737691,2147883712,2147939264,2148210642,2149484681,2147322066,2186,2,16,23889
1336689130,5808,164.1000061035156200,21.3425998687744140,35.1957015991210940,227.2563934326172000,124.3800964355468800,21.3317108154296880,29.7851600646972660,68,113,89,83,64,15221,2148766537,2149511232,2151091940,2147883922,2148050614,2148420269,2149693787,2147340032,1469,2,16,18943
1336689264,5809,159.7400054931640600,21.4969997406005860,35.2177009582519500,229.5063018798828000,119.0260009765625000,21.4960193634033200,29.6062107086181640,70,112,91,83,63,15216,2148819830,2149453366,2150929078,2147887104,2148110546,2148455021,2149663634,2147338157,1214,2,16,13092
1336689367,5809,155.8099975585937500,21.7488002777099600,35.2443008422851560,230.2476959228515600,110.1975021362304700,21.7671203613281250,29.4566402435302730,76,113,92,83,63,15213,2148914907,2149506916,2150964818,2147887725,2148183195,2148526162,2149707044,2147340992,152,2,16,14515
1336689482,5807,152.2200012207031200,22.0301990509033200,35.2633018493652340,233.8009948730468800,101.9346008300781200,22.0210704803466800,29.1815891265869140,87,115,91,82,61,15196,2149687780,2150759597,2152815378,2147903369,2148610614,2149325997,2150641590,2147405979,235,2,16,46820
1336689596,5809,147.5299987792968800,22.2026996612548830,35.2513008117675800,235.2492980957031200,96.1125183105468800,22.2001399993896500,29.0396003723144530,103,120,93,83,60,15174,2150194212,2151448914,2153746038,2147912109,2148903305,2149729856,2151064502,2147436571,45,2,15,32111
1336689675,5808,143.6100006103515600,22.2660999298095700,35.2445983886718750,236.1544952392578000,94.1806564331054700,22.2595806121826170,28.9729804992675780,110,124,92,83,61,15163,2150665700,2152088384,2154606701,2147923949,2149162194,2150068873,2151447113,2147468489,3437,2,16,26124
1336689754,5808,139.6799926757812500,22.4440994262695300,35.2254981994628900,236.4911956787109400,88.7717437744140600,22.4260807037353500,28.8886394500732420,127,127,94,84,61,15148,2151212096,2152867236,2155641563,2147934308,2149437796,2150418752,2151853266,2147503826,2965,2,16,2344
1336689847,5807,135.9799957275390600,22.5687999725341800,35.2080993652343750,237.3072967529297000,84.3818969726562500,22.5612907409667970,28.7953891754150400,136,132,92,85,62,15130,2151865545,2153808886,2156879680,2147948617,2149754468,2150821458,2152335277,2147542592,2204,2,16,40216
1336689962,5812,132.0899963378906200,22.5907001495361330,35.2075996398925800,238.2684936523437500,83.4168167114257800,22.5910205841064450,28.7389907836914060,140,129,96,84,61,15127,2152516955,2154712155,2157954084,2147963840,2150026715,2151115483,2152650733,2147576182,1497,2,16,52965
1336690089,5809,128.3200073242187500,22.6718006134033200,35.1864013671875000,237.9331054687500000,80.9815292358398400,22.6660709381103500,28.7236309051513670,150,130,95,84,60,15118,2150736000,2151790482,2153590619,2147923565,2149100132,2149483840,2150647186,2147422793,952,2,16,37557
1336690192,5810,124.9300003051757800,22.7731990814209000,35.1763992309570300,237.8544006347656200,77.4790725708007800,22.7740497589111330,28.6831607818603500,157,133,88,86,60,15095,2151166326,2152358957,2154082925,2147930916,2149266386,2149633856,2150786678,2147442212,580,2,16,48443
1336690295,5810,120.9400024414062500,22.8959007263183600,35.1650009155273440,239.6629028320312500,73.6976089477539000,22.8906803131103500,28.5530605316162100,146,132,95,86,61,15097,2151620809,2152888420,2154397558,2147935360,2149429942,2149762194,2150854528,2147452461,513,2,15,9764
1336690398,5807,116.8700027465820300,22.9316997528076170,35.1580009460449200,240.6566925048828000,72.5106506347656200,22.9272994995117200,28.4931697845459000,129,133,94,86,60,15097,2154597796,2157127478,2159172598,2147998509,2150868982,2151728137,2152927606,2147638482,432,2,16,19149
1336690488,5807,112.2099990844726600,22.9757003784179700,35.1548995971679700,241.2366943359375000,70.5318908691406200,22.9883594512939450,28.4422798156738280,113,129,95,85,61,15099,2154946002,2157362258,2158823561,2148003867,2151051556,2151831277,2152811565,2147637028,945,1,16,37546
1336690555,5809,108.1500015258789000,23.2423000335693360,35.1492996215820300,240.4158935546875000,62.5488204956054700,23.2348709106445300,28.3791294097900400,91,126,92,84,60,15122,2156140964,2158772598,2160082157,2148035821,2151760786,2152738861,2153579757,2147710308,392,2,16,51856
1336690622,5807,104.4499969482421900,23.3325004577636720,35.1458015441894500,239.5998992919922000,59.4510688781738300,23.3306007385253900,28.3772907257080080,85,122,92,85,60,15137,2158431771,2161629970,2162954541,2148101504,2153030116,2154416484,2155077421,2147846848,967,2,16,2375
1336690701,5810,100.0599975585937500,23.3894996643066400,35.1394004821777340,238.9272003173828000,57.7275199890136700,23.3838806152343750,28.3863105773925780,85,120,92,85,61,15139,2172104512,2180164589,2183472521,2148586532,2159965339,2163962020,2164407414,2148703798,651,2,16,28281
1336690758,5808,96.7200012207031200,23.5403995513916000,35.1144981384277340,238.6322021484375000,53.9523506164550800,23.5006294250488280,28.3523597717285160,78,123,91,85,61,15136,2172350509,2179479789,2181707017,2148589558,2160848694,2164833344,2164809810,2148736978,643,2,16,58357
1336690813,5807,93.9300003051757800,23.5520000457763670,35.1057014465332000,239.5502014160156200,52.5111618041992200,23.5452194213867200,28.2930793762207030,80,123,94,84,58,15118,2184609133,2196105846,2200261997,2149147940,2167650496,2173977737,2173453504,2149544594,1097,2,16,57100
1336690868,5808,91.3099975585937500,23.5762996673584000,35.1012992858886700,241.1728973388672000,51.6132507324218750,23.5729999542236330,28.2087593078613280,79,123,92,85,58,15125,2186493494,2197772105,2201174966,2149290587,2169317275,2175674761,2174447332,2149655762,1603,1,17,49607
1336690923,5807,88.8300018310546900,23.5855998992919920,35.0989990234375000,241.9591979980468800,51.3094482421875000,23.5823993682861330,28.1698493957519530,76,124,93,85,60,15124,2174124205,2180136941,2180789321,2148737097,2163429558,2167113563,2165688448,2148840365,2144,2,16,34645
1336690978,5807,86.5800018310546900,23.5970001220703120,35.0985984802246100,242.3692932128906200,50.8923606872558600,23.5953102111816400,28.1464290618896500,78,124,94,85,59,15127,2191929389,2203376429,2205769883,2149654957,2173791131,2180573842,2177841792,2149997147,2142,2,17,33883
1336691033,5809,84.4499969482421900,23.6553001403808600,35.0993995666503900,242.1203002929687500,49.1716690063476560,23.6485691070556640,28.1362705230712900,75,123,92,86,58,15128,2200475154,2213647890,2216097042,2150176018,2179985051,2188166966,2184261430,2150597897,2062,2,17,55700
1336691090,5806,82.4700012207031200,23.6728992462158200,35.1007995605468750,241.7879943847656200,48.3842010498046900,23.6729507446289060,28.1412601470947270,74,122,93,85,57,15126,2203848365,2217130230,2219171684,2150388333,2182653604,2191008347,2186237942,2150794386,2761,1,16,53197
1336691145,5807,80.8199996948242200,23.7175998687744140,35.1026992797851560,241.3609008789062500,46.6770782470703100,23.7258090972900400,28.1391391754150400,74,123,94,85,58,15133,2206911515,2220121051,2221622400,2150677394,2184900928,2193404132,2187788214,2150973211,2492,1,16,43677
1336691200,5811,79.3899993896484400,23.7947006225585940,35.0895996093750000,241.5234069824218800,44.6244697570800800,23.7893791198730470,28.1063995361328120,74,122,91,85,59,15130,2210773412,2224000685,2224853622,2150970404,2188154459,2197034642,2190392164,2151244937,1988,1,16,1604
1336691303,5807,77.3899993896484400,23.8370990753173830,35.0663986206054700,241.2254943847656200,43.2238998413085940,23.8327693939209000,28.1022605895996100,70,123,94,85,59,15136,2217954331,2231518921,2231435648,2151413110,2193304210,2202606080,2194202441,2151630134,1854,2,16,4352
1336691417,5808,74.4400024414062500,23.9263992309570300,35.0656013488769500,241.5121002197265600,40.0695915222168000,23.9305305480957030,28.0503005981445300,67,122,92,85,60,15131,2227496329,2240446811,2238662555,2152189138,2201759652,2211267264,2200229476,2152269869,1266,1,16,57672
1336691472,5810,72.0000000000000000,23.9724006652832030,35.0343017578125000,241.8760986328125000,38.8134994506835940,23.9694690704345700,28.0185394287109380,67,123,94,83,61,15120,2236840585,2250405403,2248186066,2153185764,2208957101,2218887570,2205850852,2152909979,663,1,16,63900
1336691527,5809,69.4000015258789000,23.9890003204345700,35.0247993469238300,242.1721038818359400,37.8033714294433600,24.0007896423339840,27.9928703308105470,67,122,92,85,63,15110,2246726573,2260512704,2257070400,2154200237,2217212617,2227094674,2211580406,2153572306,64,2,16,54088
1336691582,5808,66.6299972534179700,24.0583000183105470,34.9982986450195300,242.1311035156250000,35.7848815917968750,24.0633907318115230,27.9696407318115230,62,121,95,86,58,15121,2256961718,2271281152,2267126198,2155621595,2226353371,2236306998,2218071259,2154373641,3369,2,16,23645
1336691637,5810,64.1299972534179700,24.1226005554199220,34.9809989929199200,242.3717041015625000,33.9475517272949200,24.1203994750976560,27.9362297058105470,60,123,93,84,58,15138,2240916800,2250565833,2245045824,2154576530,2218762971,2225754907,2208193618,2153382116,293,2,16,24841
1336691692,5806,62.1500015258789060,24.1826992034912100,34.9434013366699200,242.4786071777343800,32.1487693786621100,24.1762199401855470,27.9093208312988280,60,119,94,85,58,15134,2257441005,2269881316,2265060982,2156582921,2232239186,2240215277,2219163090,2154735936,819,1,17,46250
1336691749,5807,60.6199989318847660,24.1980991363525400,34.9360008239746100,243.0619964599609400,31.4359493255615230,24.1983509063720700,27.8747806549072270,60,119,94,86,57,15126,2257402724,2269050349,2263675328,2157157833,2234085458,2241207222,2219187172,2154875986,694,2,16,19390
1336691816,5807,59.6399993896484400,24.1982994079589840,34.9269981384277340,243.2937927246093800,31.0286903381347660,24.2109909057617200,27.8595294952392580,61,121,92,84,55,15130,2277410267,2292922358,2288451712,2159827757,2251657005,2260684278,2234203392,2156451885,339,2,16,39017
1336692027,5808,57.7599983215332000,24.2092990875244140,34.9262008666992200,243.4380035400390600,30.8074092864990230,24.2178592681884770,27.8503608703613280,60,120,92,84,62,15124,2269687113,2283671058,2278867456,2159556946,2247696905,2253292361,2226281417,2155777106,3328,1,16,51124
1336692153,5810,54.7000007629394500,24.2005004882812500,34.9212989807128900,243.9331970214843800,31.2116107940673830,24.2053108215332030,27.8336296081542970,57,120,96,85,55,15123,2272413659,2284945115,2279259977,2161553865,2262610020,2265988333,2233342857,2156705097,3230,2,16,34327
1336692208,5806,52.4199981689453100,24.1984996795654300,34.9192008972168000,244.2059020996093800,31.1508407592773440,24.2071990966796880,27.8208293914794920,55,119,95,83,56,15117,2302766720,2319722093,2314656201,2166968676,2299361901,2304365659,2260685065,2159897856,3262,2,16,10997
1336692263,5807,50.0400009155273440,24.1991996765136720,34.9182014465332000,244.2220001220703000,31.1745395660400400,24.2064609527587900,27.8203907012939450,55,119,92,84,55,15123,2307727195,2323267419,2317322532,2169385782,2312849024,2316394633,2267879680,2160761252,3328,2,16,37688
1336692318,5801,47.6399993896484400,24.2010002136230470,34.9191017150878900,244.4176025390625000,31.0503292083740230,24.2103195190429700,27.8104705810546880,54,118,93,86,53,15122,2316386029,2332536466,2326894272,2172657947,2320776064,2322124608,2270712219,2161785645,3380,1,16,14401
1336692373,5806,45.1599998474121100,24.2042999267578120,34.9197006225585940,244.4960021972656200,30.8859901428222660,24.2154197692871100,27.8049602508544920,54,119,93,85,55,15118,2332684653,2350673362,2346332781,2178808091,2346601124,2347855981,2288262253,2163959680,3528,2,17,42165
1336692451,5808,41.0900001525878900,24.2049007415771500,34.9174003601074200,244.5274963378906200,30.8708400726318360,24.2158908843994140,27.8033103942871100,52,121,94,85,58,15123,2364936000,2386061897,2383444480,2191721106,2383112155,2382427949,2311478016,2168441782,19,2,16,10364
1336692506,5806,37.6699981689453100,24.2112998962402340,34.9169006347656250,244.6257934570312500,30.6925392150878900,24.2214298248291000,27.7968997955322270,52,120,93,84,59,15123,2376556909,2397022025,2395124918,2201016960,2412436498,2409096484,2328840320,2172026349,200,2,16,24722
1336692561,5805,34.2200012207031250,24.2145996093750000,34.9174995422363300,244.5794067382812500,30.7470207214355470,24.2197303771972660,27.7995491027832030,52,119,95,85,58,15125,2292770953,2297820132,2289802057,2180266176,2320620690,2309267958,2254025600,2162163227,293,2,16,37836
1336692616,5805,30.7999992370605470,24.2180995941162100,34.9173011779785160,244.8188934326172000,30.3983802795410160,24.2305603027343750,27.7848205566406250,51,120,91,86,55,15124,2414769590,2436391241,2437620946,2231012534,2458920146,2449454116,2353482121,2179711131,562,1,16,40391
1336692671,5807,27.3700008392334000,24.2226009368896500,34.9185981750488300,244.7751007080078000,30.2419109344482420,24.2354202270507800,27.7848205566406250,50,119,92,84,52,15115,2434074688,2456957906,2460859026,2252597184,2500239872,2488683949,2380908736,2186982976,602,1,16,28725
1336692726,5807,23.9500007629394530,24.2262992858886720,34.9189987182617200,244.9127044677734400,30.0521907806396500,24.2413101196289060,27.7763805389404300,50,120,92,84,60,15128,2446293421,2467260352,2469524864,2267741467,2529944310,2514549366,2397974957,2193094555,850,2,15,49818
